Location: Page Park
(26.5792°N, 81.8620°W)
Time: 18:51:51
(UTC+00:00)

Daily predictions for brighter satellites

Satellite Brightness Start Highest point End
(mag) Time Altitude Azimuth Time Altitude Azimuth Time Altitude Azimuth
MOS 1-B Rocket 4.4 22:46:26 10° NNE 22:52:27 54° ESE 22:59:24 10° S
H-2A R/B 2.9 22:49:37 10° SE 22:54:00 27° ENE 22:58:17 10° NNE
CZ-2D R/B 4.3 22:51:31 10° SE 22:54:41 24° ENE 22:57:49 10° NNE
Delta 128 4.5 22:48:55 10° WSW 22:55:45 78° SSE 23:01:28 10° E
Cosmos 1933 3.3 22:56:09 10° S 23:00:12 81° E 23:04:15 10° N
COSMOS 2406 3.4 22:55:18 10° SSW 23:01:04 83° WNW 23:06:50 10° NNE
CORIOLIS 4.2 22:57:43 10° SSE 23:03:00 63° ENE 23:08:19 10° N
GMS 1 Rocket B 4.2 23:00:10 10° WNW 23:04:07 80° N 23:08:14 10° E
COSMO-SKYMED 1 3.0 23:01:47 10° NNE 23:05:55 43° E 23:10:03 10° S
Lacrosse 5 2.8 23:01:15 10° NW 23:06:12 55° WSW 23:11:09 10° SSE
Atlas Centaur 2 2.3 23:04:20 10° W 23:07:41 38° SSW 23:11:03 10° SE
Okean O Rocket 2.9 23:08:03 10° ESE 23:11:10 19° ENE 23:14:18 10° NNE
PAYLOAD B 4.4 23:07:57 10° SSE 23:13:19 49° ENE 23:18:42 10° N
PSLV R/B 3.7 23:10:32 10° SSE 23:14:06 53° ENE 23:17:42 10° N
Cosmos 1833 Rocket 3.9 23:11:46 10° SW 23:17:02 41° WNW 23:22:19 10° N
Cosmos 1634 Rocket 4.0 23:13:12 10° S 23:19:29 84° E 23:25:50 10° N
ARGOS 3.9 23:15:54 10° SE 23:20:30 29° ENE 23:25:06 10° NNE
DEBRIS 1.7 23:18:43 10° SW 23:20:40 60° SE 23:22:34 16° NE
SMAP 3.5 23:16:34 10° S 23:21:10 65° W 23:25:46 10° NNW
NOAA 6 4.5 23:18:40 10° S 23:23:46 67° WSW 23:28:53 10° NNW
Cosmos 841 Rocket 3.7 23:21:04 10° SSW 23:26:13 73° WNW 23:31:23 10° N
Meteor 1-26 Rocket 4.4 23:20:30 10° S 23:26:20 83° W 23:32:21 10° N
CZ-4B R/B 3.4 23:22:53 10° SE 23:28:06 45° ENE 23:33:12 10° N
Cosmos 1500 3.6 23:26:17 10° NNE 23:29:44 36° E 23:33:10 10° SSE
Intercosmos 25 4.5 23:23:23 10° N 23:31:38 81° E 23:36:31 10° S
Cosmos 1743 Rocket 4.1 23:28:08 10° NNW 23:32:23 60° W 23:36:38 10° S
Cosmos 1151 Rocket 3.0 23:28:37 10° S 23:32:50 60° E 23:37:05 10° NNE
Cosmos 1937 Rocket 3.8 23:32:54 10° N 23:37:56 42° ENE 23:42:55 10° SE
CZ-2C R/B 1.7 23:34:20 10° SW 23:38:24 49° SSE 23:40:25 25° E
Meteor 2-21 4.3 23:33:47 10° N 23:39:50 69° E 23:45:49 10° SSE
Cosmos 2360 4.5 23:34:36 10° N 23:40:02 43° ENE 23:45:25 10° SE
Cosmos 44 3.1 23:36:45 10° NNW 23:41:18 83° WSW 23:45:37 10° SSE
Cosmos 2026 Rocket 3.9 23:35:22 10° N 23:41:28 82° E 23:47:31 10° S
Cosmos 1328 Rocket 3.7 23:37:20 10° SSE 23:41:37 51° E 23:45:51 10° NNE
GPS 2-15 Rocket1 4.4 23:39:16 10° SW 23:43:23 31° S 23:46:19 16° ESE
Cosmos 1666 Rocket 4.0 23:39:54 10° NNE 23:44:00 36° E 23:48:01 10° SSE
Cosmos 2180 Rocket 4.5 23:42:23 10° S 23:48:42 66° E 23:54:58 10° NNE
Cosmos 990 Rocket 4.3 23:44:15 10° NNW 23:49:22 67° WSW 23:54:27 10° S
SJ-11-01 4.3 23:45:36 10° SSE 23:50:15 60° ENE 23:54:55 10° N
CZ-2C R/B 3.3 23:47:00 10° N 23:52:02 53° WNW 23:57:03 10° SSW
APEX 4.1 23:50:08 10° S 23:54:37 36° ESE 23:55:06 35° E
BREEZE-M DEB (TANK) 4.4 23:40:17 10° NW 23:55:31 46° NNE 23:57:39 31° ENE
